Change the Weather History Date:

Wednesday, April 10, 2013

  Actual Average Record
Temperature  
Mean Temperature 41 °F 53 °F  
Max Temperature 46 °F 66 °F 87 °F (2011)
Min Temperature 36 °F 41 °F 24 °F (2003)
Degree Days  
Heating Degree Days 24 12  
Month to date heating degree days 152 137  
Since 1 July heating degree days 4799 4793  
Cooling Degree Days 0 1  
Month to date cooling degree days 0 3  
Year to date cooling degree days 0 6  
Moisture  
Dew Point 39 °F    
Average Humidity 89    
Maximum Humidity 93    
Minimum Humidity 85    
Precipitation  
Precipitation 0.95 in 0.12 in 1.15 in (2001)
Month to date precipitation 1.59 0.93  
Year to date precipitation 5.99 5.86  
Sea Level Pressure  
Sea Level Pressure 29.85 in    
Wind  
Wind Speed 13 mph (NW)    
Max Wind Speed 22 mph    
Max Gust Speed 28 mph    
Visibility 5 miles    
Events Rain , Thunderstorm    
T = Trace of Precipitation, MM = Missing Value Source: NWS Daily Summary

Daily Weather History Graph

Daily Weather History Graph

Search for Another Location

Airport or City:

Trip Planner

Search our weather history database for the weather conditions in past years. The results will help you decide how hot, cold, wet, or windy it might be!

Date:

Astronomy

Apr. 10, 2013 Rise Set
Actual Time 6:51 AM CDT 7:53 PM CDT
Civil Twilight 6:23 AM CDT 8:20 PM CDT
Nautical Twilight 5:51 AM CDT 8:53 PM CDT
Astronomical Twilight 5:17 AM CDT 9:27 PM CDT
Moon 6:48 AM CDT (4/10) 8:29 PM CDT (4/10)
Length of Visible Light 13h 56m
Length of Day
13h 02m
New Moon, 0% of the Moon is Illuminated
Apr 10
New Moon
Apr 18
First Quarter
Apr 25
Full
May 2
Last Quarter
May 9
New

Hourly Weather History & Observations

Time (CDT) Temp. Windchill Dew Point Humidity Pressure Visibility Wind Dir Wind Speed Gust Speed Precip Events Conditions
12:04 AM 48.2 °F - 44.6 °F 87% 29.81 in 8.0 mi NW 23.0 mph 33.4 mph 0.00 in Thunderstorm Overcast
12:18 AM 46.4 °F 37.4 °F 42.8 °F 87% 29.84 in 3.0 mi NW 28.8 mph 36.8 mph 0.03 in Rain , Thunderstorm Rain
12:41 AM 42.8 °F 32.1 °F 39.2 °F 87% 29.87 in 7.0 mi NNW 31.1 mph 43.7 mph 0.04 in Rain , Thunderstorm Light Rain
12:52 AM 41.0 °F 31.9 °F 37.9 °F 89% 29.84 in 10.0 mi North 19.6 mph 40.3 mph 0.04 in Rain , Thunderstorm Light Rain
1:00 AM 42.8 °F 38.0 °F 37.4 °F 81% 29.87 in 10.0 mi North 8.1 mph 27.6 mph 0.00 in Rain Light Rain
1:07 AM 42.8 °F 38.0 °F 37.4 °F 81% 29.87 in 10.0 mi NNW 8.1 mph - 0.00 in Rain Light Rain
1:33 AM 44.6 °F 43.1 °F 39.2 °F 81% 29.86 in 2.5 mi NW 3.5 mph - 0.07 in Rain , Thunderstorm Thunderstorms and Rain
1:41 AM 44.6 °F - 39.2 °F 81% 29.86 in 1.5 mi Calm Calm - 0.12 in Rain , Thunderstorm Thunderstorms and Rain
1:50 AM 42.8 °F - 41.0 °F 93% 29.84 in 3.0 mi Calm Calm - 0.14 in Rain , Thunderstorm Light Thunderstorms and Rain
1:51 AM 43.0 °F - 41.0 °F 93% 29.83 in 3.0 mi Calm Calm - 0.15 in Rain , Thunderstorm Light Thunderstorms and Rain
2:01 AM 44.6 °F 40.7 °F 42.8 °F 93% 29.81 in 2.5 mi NNE 6.9 mph - 0.04 in Rain , Thunderstorm Light Rain
2:08 AM 44.6 °F 41.4 °F 42.8 °F 93% 29.81 in 6.0 mi NE 5.8 mph - 0.04 in Rain , Thunderstorm Light Rain
2:15 AM 44.6 °F 39.7 °F 42.8 °F 93% 29.76 in 7.0 mi NNE 9.2 mph - 0.05 in Rain Light Rain
2:52 AM 46.0 °F 43.1 °F 43.0 °F 89% 29.77 in 3.0 mi ESE 5.8 mph - 0.10 in Rain Light Rain
2:56 AM 46.4 °F 43.5 °F 42.8 °F 87% 29.78 in 1.8 mi East 5.8 mph - 0.04 in Rain Heavy Rain
3:02 AM 46.4 °F - 42.8 °F 87% 29.79 in 3.0 mi Calm Calm - 0.04 in Rain Light Rain
3:14 AM 46.4 °F 39.8 °F 42.8 °F 87% 29.80 in 6.0 mi WNW 16.1 mph - 0.05 in Rain , Thunderstorm Light Thunderstorms and Rain
3:28 AM 46.4 °F 40.7 °F 42.8 °F 87% 29.82 in 2.5 mi WNW 12.7 mph - 0.10 in Rain , Thunderstorm Thunderstorms and Rain
3:38 AM 44.6 °F 36.9 °F 42.8 °F 93% 29.84 in 4.0 mi WNW 18.4 mph 25.3 mph 0.12 in Rain , Thunderstorm Light Thunderstorms and Rain
3:52 AM 44.1 °F 37.1 °F 42.1 °F 93% 29.85 in 3.0 mi West 15.0 mph 23.0 mph 0.17 in Rain , Thunderstorm Light Thunderstorms and Rain
4:12 AM 42.8 °F 35.1 °F 41.0 °F 93% 29.79 in 4.0 mi NW 16.1 mph 24.2 mph 0.06 in Rain Light Rain
4:52 AM 43.0 °F 36.8 °F 39.9 °F 89% 29.86 in 10.0 mi WNW 11.5 mph - 0.08 in Rain Light Rain
4:59 AM 42.8 °F 36.2 °F 39.2 °F 87% 29.85 in 10.0 mi WNW 12.7 mph - 0.00 in   Overcast
5:10 AM 42.8 °F 36.6 °F 39.2 °F 87% 29.87 in 7.0 mi WNW 11.5 mph - 0.01 in Rain Light Rain
5:52 AM 42.1 °F 34.5 °F 39.0 °F 89% 29.88 in 10.0 mi WNW 15.0 mph - 0.01 in   Overcast
6:52 AM 39.9 °F 32.5 °F 37.0 °F 89% 29.88 in 10.0 mi NNW 12.7 mph - N/A   Overcast
7:52 AM 39.9 °F 33.4 °F 37.0 °F 89% 29.90 in 8.0 mi NW 10.4 mph - N/A   Overcast
8:52 AM 39.9 °F 31.8 °F 37.0 °F 89% 29.92 in 8.0 mi NW 15.0 mph - N/A   Overcast
9:03 AM 39.2 °F 34.2 °F 37.4 °F 93% 29.93 in 7.0 mi WNW 6.9 mph - N/A   Overcast
9:52 AM 39.9 °F 33.4 °F 37.0 °F 89% 29.92 in 3.0 mi NW 10.4 mph - 0.02 in Rain Light Rain
10:02 AM 39.2 °F 31.2 °F 37.4 °F 93% 29.94 in 2.5 mi WNW 13.8 mph - 0.01 in Rain Light Rain
10:24 AM 39.2 °F 32.5 °F 37.4 °F 93% 29.95 in 1.8 mi WNW 10.4 mph - 0.06 in Rain Light Rain
10:37 AM 39.2 °F 31.6 °F 37.4 °F 93% 29.92 in 2.0 mi NW 12.7 mph - 0.08 in Rain Light Rain
10:49 AM 39.2 °F 31.6 °F 37.4 °F 93% 29.92 in 3.0 mi WNW 12.7 mph - 0.10 in Rain Light Rain
10:52 AM 39.9 °F 32.5 °F 37.0 °F 89% 29.93 in 3.0 mi NW 12.7 mph - 0.10 in Rain Light Rain
11:13 AM 41.0 °F 32.5 °F 37.4 °F 87% 29.87 in 7.0 mi NNW 17.3 mph - 0.01 in Rain Light Rain
11:52 AM 39.9 °F 31.4 °F 37.0 °F 89% 29.93 in 2.0 mi WNW 16.1 mph - 0.08 in Rain Rain
12:09 PM 39.2 °F 31.2 °F 37.4 °F 93% 29.91 in 2.5 mi NW 13.8 mph - 0.03 in Rain Light Rain
12:11 PM 39.2 °F 31.2 °F 37.4 °F 93% 29.90 in 3.0 mi NW 13.8 mph - 0.04 in Rain Light Rain
12:22 PM 39.2 °F 31.6 °F 37.4 °F 93% 29.90 in 3.0 mi NW 12.7 mph - 0.05 in Rain Light Rain
12:52 PM 41.0 °F 33.9 °F 37.9 °F 89% 29.88 in 8.0 mi WNW 12.7 mph - 0.05 in   Overcast
1:33 PM 41.0 °F 33.9 °F 37.4 °F 87% 29.89 in 8.0 mi WNW 12.7 mph - N/A   Overcast
1:52 PM 41.0 °F 31.9 °F 37.0 °F 86% 29.91 in 4.0 mi WNW 19.6 mph - 0.01 in Rain Light Rain
2:07 PM 41.0 °F 32.5 °F 37.4 °F 87% 29.90 in 2.5 mi WNW 17.3 mph 25.3 mph 0.02 in Rain Light Rain
2:32 PM 39.2 °F 29.8 °F 37.4 °F 93% 29.89 in 3.0 mi NW 18.4 mph - 0.05 in Rain Light Rain
2:42 PM 39.2 °F 30.2 °F 37.4 °F 93% 29.87 in 4.0 mi NW 17.3 mph 24.2 mph 0.06 in Rain Light Rain
2:52 PM 39.9 °F 32.1 °F 37.0 °F 89% 29.88 in 5.0 mi NW 13.8 mph - 0.06 in Rain Light Rain
3:07 PM 39.2 °F 31.6 °F 37.4 °F 93% 29.89 in 6.0 mi NW 12.7 mph - 0.01 in Rain Light Rain
3:28 PM 39.2 °F 30.8 °F 37.4 °F 93% 29.85 in 2.5 mi NW 15.0 mph - 0.04 in Rain Light Rain
3:38 PM 39.2 °F 31.2 °F 37.4 °F 93% 29.84 in 4.0 mi NW 13.8 mph - 0.05 in Rain Light Rain
3:52 PM 39.9 °F 32.9 °F 37.0 °F 89% 29.85 in 2.0 mi NNW 11.5 mph - 0.08 in Rain Rain
4:16 PM 41.0 °F 32.8 °F 37.4 °F 87% 29.79 in 5.0 mi NNW 16.1 mph - 0.03 in Rain Light Rain
4:52 PM 41.0 °F 33.5 °F 37.9 °F 89% 29.84 in 8.0 mi WNW 13.8 mph - 0.03 in   Overcast
5:45 PM 42.8 °F 37.0 °F 39.2 °F 87% 29.81 in 2.0 mi WNW 10.4 mph - N/A   Overcast
5:52 PM 42.1 °F 35.2 °F 39.0 °F 89% 29.81 in 1.8 mi NW 12.7 mph - N/A   Overcast
6:14 PM 41.0 °F 33.9 °F 39.2 °F 93% 29.80 in 1.2 mi NW 12.7 mph - N/A   Overcast
6:35 PM 41.0 °F 34.3 °F 39.2 °F 93% 29.80 in 3.0 mi NW 11.5 mph - 0.01 in   Overcast
6:48 PM 41.0 °F 33.9 °F 39.2 °F 93% 29.81 in 3.0 mi NW 12.7 mph - 0.01 in   Overcast
6:52 PM 41.0 °F 33.5 °F 39.0 °F 93% 29.82 in 4.0 mi NW 13.8 mph - 0.01 in   Overcast
7:02 PM 41.0 °F 33.9 °F 39.2 °F 93% 29.82 in 5.0 mi WNW 12.7 mph - N/A   Overcast
7:13 PM 41.0 °F 34.7 °F 37.4 °F 87% 29.82 in 2.5 mi WNW 10.4 mph - N/A   Overcast
7:18 PM 41.0 °F 34.3 °F 39.2 °F 93% 29.82 in 1.8 mi WNW 11.5 mph - N/A   Overcast
7:25 PM 41.0 °F 33.5 °F 39.2 °F 93% 29.82 in 1.2 mi WNW 13.8 mph - N/A   Overcast
7:47 PM 41.0 °F 34.7 °F 37.4 °F 87% 29.81 in 2.0 mi NW 10.4 mph - N/A   Overcast
7:52 PM 39.9 °F 33.4 °F 37.9 °F 93% 29.83 in 2.5 mi NW 10.4 mph - N/A   Overcast
7:56 PM 39.2 °F 32.5 °F 37.4 °F 93% 29.82 in 3.0 mi NW 10.4 mph - N/A   Overcast
8:35 PM 41.0 °F 34.7 °F 37.4 °F 87% 29.81 in 9.0 mi NW 10.4 mph - N/A   Overcast
8:52 PM 39.9 °F 33.9 °F 37.9 °F 93% 29.82 in 5.0 mi WNW 9.2 mph - 0.00 in Rain Light Rain
9:52 PM 39.9 °F 32.5 °F 37.0 °F 89% 29.84 in 10.0 mi WNW 12.7 mph - 0.00 in   Overcast
10:23 PM 39.2 °F 31.2 °F 37.4 °F 93% 29.84 in 2.5 mi West 13.8 mph 19.6 mph N/A   Overcast
10:39 PM 37.4 °F 28.5 °F 35.6 °F 93% 29.84 in 1.8 mi WNW 15.0 mph - N/A   Overcast
10:52 PM 37.0 °F 27.7 °F 35.1 °F 93% 29.86 in 1.5 mi WNW 16.1 mph - N/A   Overcast
11:20 PM 37.4 °F 28.2 °F 33.8 °F 87% 29.85 in 6.0 mi WNW 16.1 mph 24.2 mph N/A   Overcast
11:45 PM 37.4 °F 29.3 °F 33.8 °F 87% 29.85 in 10.0 mi WNW 12.7 mph 24.2 mph N/A   Overcast
11:52 PM 37.0 °F 27.7 °F 34.0 °F 89% 29.86 in 8.0 mi West 16.1 mph 23.0 mph N/A   Overcast
11:56 PM 35.6 °F 25.5 °F 33.8 °F 93% 29.85 in 6.0 mi WNW 17.3 mph - N/A   Overcast